"read_dt","SO2 (ppb)","flags","PMT voltage (V)","lamp voltage (V)","lamp intensity (Hz)","internal temp (C)","react chamber temp (C)","sample flow (l/min)","pres (mmHg)","SO2 bkg (ppb)","SO2 coefficient"
2017-03-07 00:00:00,1750E-3,5C000400,-0724,0840,11996,027.0,045.4,0.223,757.4,01.16,0.508
2017-03-07 00:01:00,1880E-3,5C000400,-0724,0840,12047,027.1,045.4,0.223,757.3,01.16,0.508
2017-03-07 00:02:00,1711E-3,5C000400,-0724,0840,11982,027.1,045.4,0.224,757.2,01.16,0.508
2017-03-07 00:03:00,1783E-3,5C000400,-0724,0840,12177,027.1,045.4,0.224,757.1,01.16,0.508
2017-03-07 00:04:00,1759E-3,5C000400,-0724,0840,12088,027.1,045.4,0.223,757.0,01.16,0.508
2017-03-07 00:05:00,1736E-3,5C000400,-0724,0839,11832,027.1,045.4,0.224,756.9,01.16,0.508
2017-03-07 00:06:00,1880E-3,5C000400,-0724,0840,12072,027.1,045.4,0.223,756.8,01.16,0.508
2017-03-07 00:07:00,1723E-3,5C000400,-0724,0840,12034,027.1,045.4,0.223,756.8,01.16,0.508
2017-03-07 00:08:00,1776E-3,5C000400,-0724,0840,11987,027.1,045.4,0.224,756.8,01.16,0.508
2017-03-07 00:09:00,1754E-3,5C000400,-0724,0841,12019,027.0,045.4,0.223,756.8,01.16,0.508
2017-03-07 00:10:00,1877E-3,5C000400,-0724,0840,12028,027.0,045.4,0.223,756.8,01.16,0.508
2017-03-07 00:11:00,1809E-3,5C000400,-0724,0840,12026,027.0,045.4,0.223,756.8,01.16,0.508
2017-03-07 00:12:00,1775E-3,5C000400,-0724,0840,12062,027.0,045.4,0.223,756.9,01.16,0.508
2017-03-07 00:13:00,1839E-3,5C000400,-0724,0840,12059,027.0,045.4,0.224,756.9,01.16,0.508
2017-03-07 00:14:00,1636E-3,5C000400,-0724,0841,11967,027.0,045.4,0.223,757.0,01.16,0.508
2017-03-07 00:15:00,1749E-3,5C000400,-0724,0840,12166,027.0,045.4,0.223,757.0,01.16,0.508
2017-03-07 00:16:00,1790E-3,5C000400,-0724,0839,12038,027.0,045.4,0.224,757.0,01.16,0.508
2017-03-07 00:17:00,1781E-3,5C000400,-0724,0840,11906,027.0,045.4,0.223,757.0,01.16,0.508
2017-03-07 00:18:00,1780E-3,5C000400,-0724,0840,11988,027.0,045.4,0.224,757.0,01.16,0.508
2017-03-07 00:19:00,1767E-3,5C000400,-0724,0841,12228,027.0,045.4,0.224,757.0,01.16,0.508
2017-03-07 00:20:00,1798E-3,5C000400,-0724,0840,11946,027.0,045.4,0.223,757.0,01.16,0.508
2017-03-07 00:21:00,1757E-3,5C000400,-0724,0841,11999,027.0,045.4,0.224,757.1,01.16,0.508
2017-03-07 00:22:00,1743E-3,5C000400,-0724,0840,12051,027.0,045.4,0.224,757.1,01.16,0.508
2017-03-07 00:23:00,1732E-3,5C000400,-0724,0841,11970,027.0,045.4,0.223,757.1,01.16,0.508
2017-03-07 00:24:00,1788E-3,5C000400,-0724,0841,12077,027.0,045.4,0.223,757.1,01.16,0.508
2017-03-07 00:25:00,1777E-3,5C000400,-0724,0840,12034,027.0,045.4,0.224,757.1,01.16,0.508
2017-03-07 00:26:00,1785E-3,5C000400,-0724,0841,12055,027.0,045.4,0.224,757.2,01.16,0.508
2017-03-07 00:27:00,1734E-3,5C000400,-0724,0841,12060,027.0,045.4,0.223,757.2,01.16,0.508
2017-03-07 00:28:00,1716E-3,5C000400,-0724,0840,12116,027.0,045.4,0.223,757.2,01.16,0.508
2017-03-07 00:29:00,1845E-3,5C000400,-0724,0840,12021,027.0,045.4,0.224,757.2,01.16,0.508
2017-03-07 00:30:00,1717E-3,5C000400,-0724,0840,11966,027.0,045.4,0.223,757.3,01.16,0.508
2017-03-07 00:31:00,1839E-3,5C000400,-0724,0841,12075,027.0,045.4,0.224,757.3,01.16,0.508
2017-03-07 00:32:00,1813E-3,5C000400,-0724,0841,11902,027.0,045.4,0.224,757.3,01.16,0.508
2017-03-07 00:33:00,1711E-3,5C000400,-0724,0840,12047,027.0,045.4,0.223,757.2,01.16,0.508
2017-03-07 00:34:00,1563E-3,5C000400,-0724,0840,12178,027.0,045.4,0.224,757.2,01.16,0.508
2017-03-07 00:35:00,1710E-3,5C000400,-0724,0841,12105,027.0,045.4,0.224,757.1,01.16,0.508
2017-03-07 00:36:00,1741E-3,5C000400,-0724,0840,12153,026.9,045.4,0.224,757.1,01.16,0.508
2017-03-07 00:37:00,1794E-3,5C000400,-0724,0840,12150,026.9,045.4,0.224,757.1,01.16,0.508
2017-03-07 00:38:00,1646E-3,5C000400,-0724,0840,12064,027.0,045.4,0.223,757.1,01.16,0.508
2017-03-07 00:39:00,1673E-3,5C000400,-0724,0840,11997,027.0,045.4,0.224,757.1,01.16,0.508
2017-03-07 00:40:00,1699E-3,5C000400,-0724,0840,11981,027.0,045.4,0.224,757.1,01.16,0.508
2017-03-07 00:41:00,1833E-3,5C000400,-0724,0841,12091,027.0,045.4,0.223,757.1,01.16,0.508
2017-03-07 00:42:00,1815E-3,5C000400,-0724,0840,11993,027.0,045.4,0.223,757.1,01.16,0.508
2017-03-07 00:43:00,1663E-3,5C000400,-0724,0839,12009,027.0,045.4,0.224,757.1,01.16,0.508
2017-03-07 00:44:00,1801E-3,5C000400,-0724,0840,12040,027.0,045.4,0.224,757.1,01.16,0.508
2017-03-07 00:45:00,1788E-3,5C000400,-0724,0840,11954,027.0,045.4,0.223,757.1,01.16,0.508
2017-03-07 00:46:00,1822E-3,5C000400,-0724,0840,12020,027.0,045.4,0.224,757.1,01.16,0.508
2017-03-07 00:47:00,1798E-3,5C000400,-0724,0840,12082,027.0,045.4,0.224,757.2,01.16,0.508
2017-03-07 00:48:00,1662E-3,5C000400,-0724,0841,12003,027.0,045.4,0.223,757.2,01.16,0.508
2017-03-07 00:49:00,1831E-3,5C000400,-0724,0840,12032,027.0,045.4,0.224,757.2,01.16,0.508
2017-03-07 00:50:00,1829E-3,5C000400,-0724,0841,12079,027.0,045.4,0.224,757.2,01.16,0.508
2017-03-07 00:51:00,1735E-3,5C000400,-0724,0841,12077,027.0,045.4,0.223,757.2,01.16,0.508
2017-03-07 00:52:00,1668E-3,5C000400,-0724,0840,11906,027.0,045.4,0.224,757.2,01.16,0.508
2017-03-07 00:53:00,1695E-3,5C000400,-0724,0840,12001,027.0,045.4,0.224,757.2,01.16,0.508
2017-03-07 00:54:00,1782E-3,5C000400,-0724,0840,12094,027.0,045.4,0.223,757.2,01.16,0.508
2017-03-07 00:55:00,1721E-3,5C000400,-0724,0841,12007,027.0,045.4,0.224,757.3,01.16,0.508
2017-03-07 00:56:00,1752E-3,5C000400,-0724,0840,12053,027.0,045.4,0.224,757.3,01.16,0.508
2017-03-07 00:57:00,1685E-3,5C000400,-0724,0840,12108,027.0,045.4,0.223,757.3,01.16,0.508
2017-03-07 00:58:00,1686E-3,5C000400,-0724,0840,12061,027.0,045.4,0.224,757.3,01.16,0.508
2017-03-07 00:59:00,1776E-3,5C000400,-0724,0840,12128,027.0,045.4,0.224,757.3,01.16,0.508
2017-03-07 01:00:00,1669E-3,5C000400,-0724,0841,12066,027.0,045.4,0.223,757.3,01.16,0.508
2017-03-07 01:01:00,1780E-3,5C000400,-0724,0841,11977,027.0,045.4,0.224,757.2,01.16,0.508
2017-03-07 01:02:00,1801E-3,5C000400,-0724,0840,11991,027.0,045.4,0.224,757.2,01.16,0.508
2017-03-07 01:03:00,1739E-3,5C000400,-0724,0840,12006,027.0,045.4,0.223,757.2,01.16,0.508
2017-03-07 01:04:00,1776E-3,5C000400,-0724,0841,12085,026.9,045.4,0.224,757.2,01.16,0.508
2017-03-07 01:05:00,1777E-3,5C000400,-0724,0840,12113,027.0,045.4,0.224,757.2,01.16,0.508
2017-03-07 01:06:00,1700E-3,5C000400,-0724,0841,11891,027.0,045.4,0.223,757.2,01.16,0.508
2017-03-07 01:07:00,1751E-3,5C000400,-0724,0841,11937,026.9,045.4,0.224,757.2,01.16,0.508
2017-03-07 01:08:00,1880E-3,5C000400,-0724,0840,12022,027.0,045.4,0.224,757.2,01.16,0.508
2017-03-07 01:09:00,1819E-3,5C000400,-0724,0841,12036,027.0,045.4,0.223,757.2,01.16,0.508
2017-03-07 01:10:00,1869E-3,5C000400,-0724,0840,12011,026.9,045.4,0.224,757.2,01.16,0.508
2017-03-07 01:11:00,1722E-3,5C000400,-0724,0841,12135,027.0,045.4,0.224,757.2,01.16,0.508
2017-03-07 01:12:00,1898E-3,5C000400,-0724,0841,12107,026.9,045.4,0.223,757.1,01.16,0.508
2017-03-07 01:13:00,1815E-3,5C000400,-0724,0841,12062,026.9,045.4,0.224,757.1,01.16,0.508
2017-03-07 01:14:00,1828E-3,5C000400,-0724,0840,12180,026.9,045.4,0.224,757.1,01.16,0.508
2017-03-07 01:15:00,1789E-3,5C000400,-0724,0841,11971,026.9,045.4,0.223,757.1,01.16,0.508
2017-03-07 01:16:00,1725E-3,5C000400,-0724,0840,12047,026.9,045.4,0.224,757.1,01.16,0.508
2017-03-07 01:17:00,1719E-3,5C000400,-0724,0841,12061,026.9,045.4,0.224,757.0,01.16,0.508
2017-03-07 01:18:00,1759E-3,5C000400,-0724,0841,12117,027.0,045.4,0.223,757.0,01.16,0.508
2017-03-07 01:19:00,1725E-3,5C000400,-0724,0841,11888,027.0,045.4,0.224,757.0,01.16,0.508
2017-03-07 01:20:00,1730E-3,5C000400,-0724,0841,11996,027.0,045.4,0.224,757.1,01.16,0.508
2017-03-07 01:21:00,1796E-3,5C000400,-0724,0840,12039,027.0,045.4,0.224,757.1,01.16,0.508
2017-03-07 01:22:00,1682E-3,5C000400,-0724,0841,11927,027.0,045.4,0.224,757.1,01.16,0.508
2017-03-07 01:23:00,1743E-3,5C000400,-0724,0840,12010,026.9,045.4,0.224,757.2,01.16,0.508
2017-03-07 01:24:00,1817E-3,5C000400,-0724,0839,12085,027.0,045.4,0.224,757.2,01.16,0.508
2017-03-07 01:25:00,1715E-3,5C000400,-0724,0841,11914,027.0,045.4,0.224,757.2,01.16,0.508
2017-03-07 01:26:00,1874E-3,5C000400,-0724,0840,12065,026.9,045.4,0.224,757.2,01.16,0.508
2017-03-07 01:27:00,1849E-3,5C000400,-0724,0841,12047,027.0,045.4,0.224,757.2,01.16,0.508
2017-03-07 01:28:00,1788E-3,5C000400,-0724,0840,11982,026.9,045.4,0.223,757.2,01.16,0.508
2017-03-07 01:29:00,1790E-3,5C000400,-0724,0840,11969,027.0,045.4,0.224,757.2,01.16,0.508
2017-03-07 01:30:00,1677E-3,5C000400,-0724,0840,12020,026.9,045.4,0.224,757.2,01.16,0.508
2017-03-07 01:31:00,1836E-3,5C000400,-0724,0841,11944,026.9,045.4,0.224,757.2,01.16,0.508
2017-03-07 01:32:00,1850E-3,5C000400,-0724,0841,12112,026.9,045.4,0.224,757.2,01.16,0.508
2017-03-07 01:33:00,1770E-3,5C000400,-0724,0841,11896,026.9,045.4,0.224,757.2,01.16,0.508
2017-03-07 01:34:00,1840E-3,5C000400,-0724,0841,11987,026.9,045.4,0.223,757.2,01.16,0.508
2017-03-07 01:35:00,1778E-3,5C000400,-0724,0840,12098,026.9,045.4,0.224,757.1,01.16,0.508
2017-03-07 01:36:00,1685E-3,5C000400,-0724,0840,12042,026.9,045.4,0.224,757.0,01.16,0.508
2017-03-07 01:37:00,1951E-3,5C000400,-0724,0840,11931,026.9,045.4,0.224,757.0,01.16,0.508
2017-03-07 01:38:00,1851E-3,5C000400,-0724,0840,11972,026.9,045.4,0.224,757.0,01.16,0.508
2017-03-07 01:39:00,1844E-3,5C000400,-0724,0840,12101,027.0,045.4,0.224,757.0,01.16,0.508
2017-03-07 01:40:00,1794E-3,5C000400,-0724,0840,11912,027.0,045.4,0.223,757.0,01.16,0.508
2017-03-07 01:41:00,1718E-3,5C000400,-0724,0840,11997,027.0,045.4,0.224,757.0,01.16,0.508
2017-03-07 01:42:00,1837E-3,5C000400,-0724,0841,11968,026.9,045.4,0.224,757.0,01.16,0.508
2017-03-07 01:43:00,1759E-3,5C000400,-0724,0840,12047,026.9,045.4,0.223,757.1,01.16,0.508
2017-03-07 01:44:00,1670E-3,5C000400,-0724,0840,11912,026.9,045.4,0.224,757.1,01.16,0.508
2017-03-07 01:45:00,1805E-3,5C000400,-0724,0840,11978,026.9,045.4,0.224,757.1,01.16,0.508
2017-03-07 01:46:00,1784E-3,5C000400,-0724,0840,12073,026.8,045.4,0.224,757.1,01.16,0.508
2017-03-07 01:47:00,1829E-3,5C000400,-0724,0841,11968,026.9,045.4,0.224,757.0,01.16,0.508
2017-03-07 01:48:00,1883E-3,5C000400,-0724,0840,11984,026.8,045.4,0.224,757.1,01.16,0.508
2017-03-07 01:49:00,1817E-3,5C000400,-0724,0840,11904,026.8,045.4,0.224,757.0,01.16,0.508
2017-03-07 01:50:00,1862E-3,5C000400,-0724,0840,12081,026.8,045.4,0.224,757.0,01.16,0.508
2017-03-07 01:51:00,1945E-3,5C000400,-0724,0840,12044,026.8,045.4,0.224,757.0,01.16,0.508
2017-03-07 01:52:00,1721E-3,5C000400,-0724,0840,12065,026.8,045.4,0.224,757.0,01.16,0.508
2017-03-07 01:53:00,1881E-3,5C000400,-0724,0840,12020,026.9,045.4,0.224,757.0,01.16,0.508
2017-03-07 01:54:00,1708E-3,5C000400,-0724,0840,12051,026.9,045.4,0.224,757.0,01.16,0.508
2017-03-07 01:55:00,1716E-3,5C000400,-0724,0840,12050,026.9,045.4,0.224,757.0,01.16,0.508
2017-03-07 01:56:00,1798E-3,5C000400,-0724,0841,11990,026.9,045.4,0.224,757.0,01.16,0.508
2017-03-07 01:57:00,1708E-3,5C000400,-0724,0840,11972,026.9,045.4,0.224,757.0,01.16,0.508
2017-03-07 01:58:00,1822E-3,5C000400,-0724,0841,12072,026.9,045.4,0.224,757.1,01.16,0.508
2017-03-07 01:59:00,1772E-3,5C000400,-0724,0840,12036,026.9,045.4,0.224,757.1,01.16,0.508
2017-03-07 02:00:00,1795E-3,5C000400,-0724,0841,12026,026.9,045.4,0.224,757.2,01.16,0.508
2017-03-07 02:01:00,1867E-3,5C000400,-0724,0840,11950,026.9,045.4,0.224,757.2,01.16,0.508
2017-03-07 02:02:00,1928E-3,5C000400,-0724,0841,12078,026.8,045.4,0.223,757.2,01.16,0.508
2017-03-07 02:03:00,1823E-3,5C000400,-0724,0840,12013,026.8,045.4,0.224,757.2,01.16,0.508
2017-03-07 02:04:00,1639E-3,5C000400,-0724,0840,11925,026.8,045.4,0.224,757.1,01.16,0.508
2017-03-07 02:05:00,1708E-3,5C000400,-0724,0841,12090,026.9,045.4,0.224,757.2,01.16,0.508
2017-03-07 02:06:00,1713E-3,5C000400,-0724,0841,11880,026.8,045.4,0.224,757.2,01.16,0.508
2017-03-07 02:07:00,1921E-3,5C000400,-0724,0840,12047,026.8,045.4,0.224,757.1,01.16,0.508
2017-03-07 02:08:00,1922E-3,5C000400,-0724,0841,12065,026.8,045.4,0.224,757.1,01.16,0.508
2017-03-07 02:09:00,1718E-3,5C000400,-0724,0840,11933,026.8,045.4,0.224,757.1,01.16,0.508
2017-03-07 02:10:00,1788E-3,5C000400,-0724,0841,11972,026.8,045.4,0.224,757.0,01.16,0.508
2017-03-07 02:11:00,1757E-3,5C000400,-0724,0840,11762,026.8,045.4,0.224,757.0,01.16,0.508
2017-03-07 02:12:00,1726E-3,5C000400,-0724,0841,11980,026.8,045.4,0.224,756.9,01.16,0.508
2017-03-07 02:13:00,1713E-3,5C000400,-0724,0841,12155,026.8,045.4,0.224,757.0,01.16,0.508
2017-03-07 02:14:00,1920E-3,5C000400,-0724,0841,12023,026.9,045.4,0.224,757.0,01.16,0.508
2017-03-07 02:15:00,1705E-3,5C000400,-0724,0840,11961,026.9,045.4,0.224,757.0,01.16,0.508
2017-03-07 02:16:00,1660E-3,5C000400,-0724,0841,12013,026.9,045.4,0.224,757.0,01.16,0.508
2017-03-07 02:17:00,1759E-3,5C000400,-0724,0840,12088,026.8,045.4,0.224,757.0,01.16,0.508
2017-03-07 02:18:00,1992E-3,5C000400,-0724,0840,12050,026.9,045.4,0.224,757.0,01.16,0.508
2017-03-07 02:19:00,1847E-3,5C000400,-0724,0841,12092,026.8,045.4,0.224,757.0,01.16,0.508
2017-03-07 02:20:00,1904E-3,5C000400,-0724,0840,12074,026.8,045.4,0.224,757.0,01.16,0.508
2017-03-07 02:21:00,1632E-3,5C000400,-0724,0841,12054,026.8,045.4,0.224,756.9,01.16,0.508
2017-03-07 02:22:00,1722E-3,5C000400,-0724,0840,12061,026.8,045.4,0.224,756.9,01.16,0.508
2017-03-07 02:23:00,1936E-3,5C000400,-0724,0840,12068,026.8,045.4,0.224,756.8,01.16,0.508
2017-03-07 02:24:00,1870E-3,5C000400,-0724,0840,12052,026.7,045.4,0.224,756.8,01.16,0.508
2017-03-07 02:25:00,1871E-3,5C000400,-0724,0840,12069,026.7,045.4,0.224,756.7,01.16,0.508
2017-03-07 02:26:00,1835E-3,5C000400,-0724,0840,12138,026.7,045.4,0.224,756.7,01.16,0.508
2017-03-07 02:27:00,1879E-3,5C000400,-0724,0840,12140,026.8,045.4,0.224,756.7,01.16,0.508
2017-03-07 02:28:00,1804E-3,5C000400,-0724,0840,11986,026.7,045.4,0.224,756.6,01.16,0.508
2017-03-07 02:29:00,1885E-3,5C000400,-0724,0840,12094,026.7,045.4,0.224,756.6,01.16,0.508
2017-03-07 02:30:00,1877E-3,5C000400,-0724,0840,12092,026.8,045.4,0.224,756.6,01.16,0.508
2017-03-07 02:31:00,1701E-3,5C000400,-0724,0840,12085,026.7,045.4,0.224,756.6,01.16,0.508
2017-03-07 02:32:00,1645E-3,5C000400,-0724,0841,12051,026.7,045.4,0.224,756.6,01.16,0.508
2017-03-07 02:33:00,1761E-3,5C000400,-0724,0840,12073,026.8,045.4,0.224,756.5,01.16,0.508
2017-03-07 02:34:00,1707E-3,5C000400,-0724,0840,12020,026.7,045.4,0.224,756.6,01.16,0.508
2017-03-07 02:35:00,1800E-3,5C000400,-0724,0841,11961,026.8,045.4,0.224,756.6,01.16,0.508
2017-03-07 02:36:00,1693E-3,5C000400,-0724,0840,12084,026.7,045.4,0.225,756.5,01.16,0.508
2017-03-07 02:37:00,1705E-3,5C000400,-0724,0841,12071,026.7,045.4,0.224,756.5,01.16,0.508
2017-03-07 02:38:00,1849E-3,5C000400,-0724,0841,12133,026.8,045.4,0.224,756.6,01.16,0.508
2017-03-07 02:39:00,1884E-3,5C000400,-0724,0840,12102,026.8,045.4,0.224,756.7,01.16,0.508
2017-03-07 02:40:00,1722E-3,5C000400,-0724,0840,11908,026.8,045.4,0.224,756.7,01.16,0.508
2017-03-07 02:41:00,1683E-3,5C000400,-0724,0841,11998,026.8,045.4,0.224,756.6,01.16,0.508
2017-03-07 02:42:00,1739E-3,5C000400,-0724,0840,11996,026.8,045.4,0.224,756.6,01.16,0.508
2017-03-07 02:43:00,1784E-3,5C000400,-0724,0840,12010,026.8,045.4,0.224,756.7,01.16,0.508
2017-03-07 02:44:00,1761E-3,5C000400,-0724,0840,11815,026.8,045.4,0.224,756.6,01.16,0.508
2017-03-07 02:45:00,1765E-3,5C000400,-0724,0840,11984,026.8,045.4,0.224,756.6,01.16,0.508
2017-03-07 02:46:00,1859E-3,5C000400,-0724,0841,12081,026.8,045.4,0.224,756.6,01.16,0.508
2017-03-07 02:47:00,1783E-3,5C000400,-0724,0840,11992,026.8,045.4,0.224,756.6,01.16,0.508
2017-03-07 02:48:00,1787E-3,5C000400,-0724,0840,12042,026.8,045.4,0.224,756.6,01.16,0.508
2017-03-07 02:49:00,1751E-3,5C000400,-0724,0841,11942,026.8,045.4,0.224,756.7,01.16,0.508
2017-03-07 02:50:00,1849E-3,5C000400,-0724,0840,11975,026.8,045.4,0.224,756.7,01.16,0.508
2017-03-07 02:51:00,1872E-3,5C000400,-0724,0840,12070,026.8,045.4,0.224,756.7,01.16,0.508
2017-03-07 02:52:00,1668E-3,5C000400,-0724,0841,12083,026.8,045.4,0.224,756.7,01.16,0.508
2017-03-07 02:53:00,1740E-3,5C000400,-0724,0840,12074,026.8,045.4,0.224,756.7,01.16,0.508
2017-03-07 02:54:00,1797E-3,5C000400,-0724,0841,12066,026.8,045.4,0.224,756.7,01.16,0.508
2017-03-07 02:55:00,1866E-3,5C000400,-0724,0841,12050,026.8,045.4,0.224,756.8,01.16,0.508
2017-03-07 02:56:00,1808E-3,5C000400,-0724,0841,12115,026.7,045.4,0.224,756.8,01.16,0.508
2017-03-07 02:57:00,1748E-3,5C000400,-0724,0840,12121,026.7,045.4,0.224,756.9,01.16,0.508
2017-03-07 02:58:00,1714E-3,5C000400,-0724,0840,12046,026.8,045.4,0.224,756.9,01.16,0.508
2017-03-07 02:59:00,1627E-3,5C000400,-0724,0842,12048,026.7,045.4,0.224,756.9,01.16,0.508
2017-03-07 03:00:00,1768E-3,5C000400,-0724,0841,12027,026.7,045.4,0.224,756.9,01.16,0.508
2017-03-07 03:01:00,1703E-3,5C000400,-0724,0840,11975,026.7,045.4,0.224,756.9,01.16,0.508
2017-03-07 03:02:00,1816E-3,5C000400,-0724,0840,12100,026.7,045.4,0.224,756.9,01.16,0.508
2017-03-07 03:03:00,1813E-3,5C000400,-0724,0840,11973,026.7,045.4,0.224,756.9,01.16,0.508
2017-03-07 03:04:00,1834E-3,5C000400,-0724,0841,12004,026.7,045.4,0.224,756.9,01.16,0.508
2017-03-07 03:05:00,1765E-3,5C000400,-0724,0840,12012,026.7,045.4,0.224,756.9,01.16,0.508
2017-03-07 03:06:00,1731E-3,5C000400,-0724,0841,11934,026.7,045.4,0.224,756.9,01.16,0.508
2017-03-07 03:07:00,1869E-3,5C000400,-0724,0840,11879,026.7,045.4,0.224,756.9,01.16,0.508
2017-03-07 03:08:00,1673E-3,5C000400,-0724,0840,12037,026.6,045.4,0.224,756.9,01.16,0.508
2017-03-07 03:09:00,1884E-3,5C000400,-0724,0840,12065,026.6,045.4,0.224,757.0,01.16,0.508
2017-03-07 03:10:00,1740E-3,5C000400,-0724,0840,12015,026.6,045.4,0.224,757.0,01.16,0.508
2017-03-07 03:11:00,1850E-3,5C000400,-0724,0840,11886,026.6,045.4,0.224,757.0,01.16,0.508
2017-03-07 03:12:00,1747E-3,5C000400,-0724,0840,12014,026.7,045.4,0.224,757.0,01.16,0.508
2017-03-07 03:13:00,1718E-3,5C000400,-0724,0840,12013,026.7,045.4,0.224,757.0,01.16,0.508
2017-03-07 03:14:00,1851E-3,5C000400,-0724,0840,12032,026.7,045.4,0.224,757.1,01.16,0.508
2017-03-07 03:15:00,1866E-3,5C000400,-0724,0840,12021,026.7,045.4,0.224,757.1,01.16,0.508
2017-03-07 03:16:00,1783E-3,5C000400,-0724,0840,12009,026.7,045.4,0.224,757.0,01.16,0.508
2017-03-07 03:17:00,1673E-3,5C000400,-0724,0839,12027,026.7,045.4,0.224,757.0,01.16,0.508
2017-03-07 03:18:00,1824E-3,5C000400,-0724,0840,12064,026.6,045.4,0.224,757.0,01.16,0.508
2017-03-07 03:19:00,1699E-3,5C000400,-0724,0840,12025,026.6,045.4,0.224,756.9,01.16,0.508
2017-03-07 03:20:00,1747E-3,5C000400,-0724,0841,12085,026.6,045.4,0.224,756.9,01.16,0.508
2017-03-07 03:21:00,1683E-3,5C000400,-0724,0840,12027,026.6,045.4,0.224,756.9,01.16,0.508
2017-03-07 03:22:00,1791E-3,5C000400,-0724,0839,11933,026.6,045.4,0.224,756.9,01.16,0.508
2017-03-07 03:23:00,1774E-3,5C000400,-0724,0839,12041,026.6,045.4,0.224,756.9,01.16,0.508
2017-03-07 03:24:00,1738E-3,5C000400,-0724,0840,11954,026.6,045.4,0.224,756.9,01.16,0.508
2017-03-07 03:25:00,1748E-3,5C000400,-0724,0840,11946,026.6,045.4,0.224,756.9,01.16,0.508
2017-03-07 03:26:00,1879E-3,5C000400,-0724,0840,11961,026.6,045.4,0.225,757.0,01.16,0.508
2017-03-07 03:27:00,1904E-3,5C000400,-0724,0840,12049,026.6,045.4,0.224,757.0,01.16,0.508
2017-03-07 03:28:00,1852E-3,5C000400,-0724,0840,12070,026.6,045.4,0.224,757.0,01.16,0.508
2017-03-07 03:29:00,1680E-3,5C000400,-0724,0840,12084,026.6,045.4,0.224,757.0,01.16,0.508
2017-03-07 03:30:00,1730E-3,5C000400,-0724,0841,12054,026.6,045.4,0.225,757.0,01.16,0.508
2017-03-07 03:31:00,1883E-3,5C000400,-0724,0840,12004,026.6,045.4,0.224,757.0,01.16,0.508
2017-03-07 03:32:00,1672E-3,5C000400,-0724,0840,12048,026.6,045.4,0.224,757.0,01.16,0.508
2017-03-07 03:33:00,1839E-3,5C000400,-0724,0840,11998,026.6,045.4,0.224,757.0,01.16,0.508
2017-03-07 03:34:00,1799E-3,5C000400,-0724,0840,11986,026.6,045.4,0.225,757.0,01.16,0.508
2017-03-07 03:35:00,1836E-3,5C000400,-0724,0840,11982,026.7,045.4,0.225,756.9,01.16,0.508
2017-03-07 03:36:00,1700E-3,5C000400,-0724,0840,12014,026.7,045.4,0.224,756.9,01.16,0.508
2017-03-07 03:37:00,1699E-3,5C000400,-0724,0841,11939,026.7,045.4,0.225,756.9,01.16,0.508
2017-03-07 03:38:00,1899E-3,5C000400,-0724,0840,12095,026.7,045.4,0.225,756.9,01.16,0.508
2017-03-07 03:39:00,1850E-3,5C000400,-0724,0840,12126,026.6,045.4,0.224,756.9,01.16,0.508
2017-03-07 03:40:00,1813E-3,5C000400,-0724,0840,12056,026.6,045.4,0.224,756.9,01.16,0.508
2017-03-07 03:41:00,1793E-3,5C000400,-0724,0840,12023,026.6,045.4,0.224,756.8,01.16,0.508
2017-03-07 03:42:00,1653E-3,5C000400,-0724,0840,11964,026.6,045.4,0.224,756.8,01.16,0.508
2017-03-07 03:43:00,1763E-3,5C000400,-0724,0840,12037,026.5,045.4,0.224,756.8,01.16,0.508
2017-03-07 03:44:00,1740E-3,5C000400,-0724,0840,12091,026.5,045.4,0.225,756.8,01.16,0.508
2017-03-07 03:45:00,1779E-3,5C000400,-0724,0840,12210,026.5,045.4,0.224,756.8,01.16,0.508
2017-03-07 03:46:00,1785E-3,5C000400,-0724,0840,11987,026.4,045.4,0.224,756.8,01.16,0.508
2017-03-07 03:47:00,1799E-3,5C000400,-0724,0841,12037,026.5,045.4,0.225,756.7,01.16,0.508
2017-03-07 03:48:00,1889E-3,5C000400,-0724,0841,12031,026.5,045.4,0.224,756.7,01.16,0.508
2017-03-07 03:49:00,1812E-3,5C000400,-0724,0840,12000,026.5,045.4,0.224,756.7,01.16,0.508
2017-03-07 03:50:00,1782E-3,5C000400,-0724,0840,12038,026.5,045.4,0.225,756.7,01.16,0.508
2017-03-07 03:51:00,1818E-3,5C000400,-0724,0839,12173,026.6,045.4,0.225,756.6,01.16,0.508
2017-03-07 03:52:00,1793E-3,5C000400,-0724,0840,12067,026.6,045.4,0.225,756.6,01.16,0.508
2017-03-07 03:53:00,1727E-3,5C000400,-0724,0840,12020,026.6,045.4,0.225,756.6,01.16,0.508
2017-03-07 03:54:00,1781E-3,5C000400,-0724,0840,12018,026.6,045.4,0.224,756.6,01.16,0.508
2017-03-07 03:55:00,1725E-3,5C000400,-0724,0840,12000,026.6,045.4,0.224,756.7,01.16,0.508
2017-03-07 03:56:00,1668E-3,5C000400,-0724,0839,12168,026.7,045.4,0.224,756.7,01.16,0.508
2017-03-07 03:57:00,1728E-3,5C000400,-0724,0840,12064,026.6,045.4,0.225,756.7,01.16,0.508
2017-03-07 03:58:00,1889E-3,5C000400,-0724,0840,12094,026.6,045.4,0.225,756.7,01.16,0.508
2017-03-07 03:59:00,1828E-3,5C000400,-0724,0840,12048,026.6,045.4,0.224,756.7,01.16,0.508
2017-03-07 04:00:00,1755E-3,5C000400,-0724,0840,11938,026.5,045.4,0.224,756.7,01.16,0.508
2017-03-07 04:01:00,1789E-3,5C000400,-0724,0841,12067,026.5,045.4,0.225,756.7,01.16,0.508
2017-03-07 04:02:00,1774E-3,5C000400,-0724,0840,12086,026.5,045.4,0.224,756.7,01.16,0.508
2017-03-07 04:03:00,1822E-3,5C000400,-0724,0840,12132,026.5,045.4,0.225,756.7,01.16,0.508
2017-03-07 04:04:00,1788E-3,5C000400,-0724,0840,11944,026.4,045.4,0.225,756.6,01.16,0.508
2017-03-07 04:05:00,1831E-3,5C000400,-0724,0839,12118,026.5,045.4,0.224,756.7,01.16,0.508
2017-03-07 04:06:00,1826E-3,5C000400,-0724,0840,12079,026.5,045.4,0.225,756.7,01.16,0.508
2017-03-07 04:07:00,1853E-3,5C000400,-0724,0840,12043,026.5,045.4,0.225,756.7,01.16,0.508
2017-03-07 04:08:00,1817E-3,5C000400,-0724,0841,11983,026.6,045.4,0.225,756.7,01.16,0.508
2017-03-07 04:09:00,1936E-3,5C000400,-0724,0840,12036,026.6,045.4,0.225,756.7,01.16,0.508
2017-03-07 04:10:00,1721E-3,5C000400,-0724,0840,11984,026.6,045.4,0.224,756.7,01.16,0.508
2017-03-07 04:11:00,1688E-3,5C000400,-0724,0841,12128,026.6,045.4,0.224,756.7,01.16,0.508
2017-03-07 04:12:00,1962E-3,5C000400,-0724,0841,11895,026.6,045.4,0.224,756.7,01.16,0.508
2017-03-07 04:13:00,1751E-3,5C000400,-0724,0840,11974,026.6,045.4,0.225,756.7,01.16,0.508
2017-03-07 04:14:00,1932E-3,5C000400,-0724,0840,12100,026.5,045.4,0.225,756.7,01.16,0.508
2017-03-07 04:15:00,1836E-3,5C000400,-0724,0839,12040,026.5,045.4,0.224,756.7,01.16,0.508
2017-03-07 04:16:00,1741E-3,5C000400,-0724,0840,11961,026.5,045.4,0.225,756.7,01.16,0.508
2017-03-07 04:17:00,1759E-3,5C000400,-0724,0841,12023,026.4,045.4,0.225,756.7,01.16,0.508
2017-03-07 04:18:00,1780E-3,5C000400,-0724,0840,11934,026.4,045.4,0.225,756.7,01.16,0.508
2017-03-07 04:19:00,1723E-3,5C000400,-0724,0840,12086,026.4,045.4,0.225,756.6,01.16,0.508
2017-03-07 04:20:00,1878E-3,5C000400,-0724,0840,12072,026.4,045.4,0.224,756.7,01.16,0.508